User: anonymous   Login
Location: Unspecified
(0.0000°N, 0.0000°E)
Time: 12:17:40
(UTC+00:00)
Language:

UFO 11 (USA 174) - Orbit

View from above orbital plane
View from above orbital plane
View from above satellite
View from above satellite

Ground track
Ground track

The orbit data is extracted from the following two-line orbital elements,

1 28117U 03057A   17113.30157006 0.00000000  00000-0  00000-0 0    02
2 28117   4.9081  35.1258 0005756 186.6470 173.3582  1.00270000    01
Epoch (UTC): 23 April 2017 07:14:15
Eccentricity: 0.0005756
inclination: 4.9081°
perigee height: 35762 km
apogee height: 35811 km
right ascension of ascending node: 35.1258°
argument of perigee: 186.6470°
revolutions per day: 1.00270000
mean anomaly at epoch: 173.3582°
orbit number at epoch: 0

The dashed part of the orbit path shows where the satellite is in the earth's shadow,  

DLR